PLEIADES NEO 3

Last updated on Sun Apr 12 2026 00:02:36 GMT+0000 (Coordinated Universal Time)

1 48268U 21034A 26101.53107056 .00000038 00000+0 11401-4 0 9996 2 48268 97.8929 177.2545 0001264 91.2292 268.9066 14.81673753267785
UTC large
Height (km)
Speed (km/s)
/
Latitude / Longitude
Inclination (degrees)
Orbital Period (minutes)
Azimuth
Elevation
Range (km)
Doppler Factor

Next 0 passes for location: London (51.5072 / 0.1276)

Sorry there are no passes over London.